Starlink 32682

operational
NORAD ID: 62196 Int'l Des: 2024-229 Owner: SPXS Country: US Constellation: starlink
LEOCIRCULAR

Starlink 32682について

説明を読み込み中...

リアルタイム位置

3D地球を読み込み中...

次回通過

高度履歴

Altitude vs Time

uPlot chart will show altitude changes over time

軌道要素

1 62196U 24229E 25350.31735805 .00022151 00000-0 81149-3 0 9997
2 62196 43.0031 348.8850 0001120 263.5578 96.5147 15.27603807 58186
Epoch: Dec 16, 2025 • Age: 20 hours

現在のステータス

高度 482.1 km
速度 7.63 km/s
衛星直下点 9.70°N, 152.65°W
打ち上げ日 Dec 4, 2024
運用期間 1 years
タイプ internet

技術仕様

分類 Payload
質量 730.00 kg
乾燥質量 700.00 kg
総質量 730.00 kg
長さ 0.30 m
直径 4.10 m
スパン 29.00 m
形状 Box + pan
製造者 SPXS
バスタイプ Starlink V2M
フェーズステータス In Orbit
所有者/国 SPXS/US

大規模コンステレーション

Loading constellations...